Temp
1 -0 -2 -3 -2 -2 -2 -2 -3 -4 -5 -5 -6 -6 -7 -8 -8 -7 -7 -6 -6 -6 -5 -5 -5 -5 -5 -4 -4 -4 -4 -3 -3 -3 -3 -3 -2 -0 0 1 2 2 3 3
-1 -2 -2 -3 -3 -3 -2 -2 -4 -5 -6 -5 -6 -6 -7 -7 -7 -6 -6 -6 -5 -5 -5 -5 -5 -5 -5 -5 -4 -4 -4 -4 -4 -4 -4 -4 -3 -3 -1 -0 0 1 2 3
-1 -3 -3 -4 -3 -3 -3 -4 -4 -4 -6 -6 -5 -5 -6 -7 -7 -7 -6 -6 -6 -6 -6 -6 -6 -5 -5 -5 -5 -5 -5 -5 -5 -5 -4 -4 -4 -4 -3 -2 -1 -0 1 2
-2 -3 -3 -3 -2 -3 -3 -3 -4 -5 -4 -3 -6 -3 -6 -7 -7 -7 -6 -6 -6 -6 -6 -6 -6 -6 -6 -6 -5 -5 -5 -5 -5 -5 -5 -5 -5 -4 -4 -3 -3 -2 -0 1
-3 -3 -2 -2 -3 -3 -4 -3 -4 -5 -4 -4 -5 -4 -6 -7 -6 -7 -6 -6 -6 -6 -7 -7 -6 -6 -6 -7 -6 -6 -6 -6 -6 -6 -6 -6 -6 -6 -5 -4 -4 -4 -2 0
-3 -2 -2 -3 -3 -3 -3 -5 -5 -4 -4 -3 -6 -5 -5 -6 -7 -7 -7 -7 -7 -7 -7 -7 -7 -7 -7 -7 -7 -7 -7 -7 -6 -6 -6 -6 -7 -6 -6 -5 -5 -4 -4 -1
-4 -3 -3 -3 -5 -4 -4 -4 -3 -2 -3 -3 -6 -4 -5 -7 -7 -7 -7 -7 -7 -7 -7 -7 -8 -7 -7 -7 -7 -7 -7 -7 -7 -6 -7 -7 -7 -7 -6 -6 -6 -6 -5 -4
-3 -3 -4 -3 -3 -4 -3 -4 -4 -3 -2 -2 -5 -4 -6 -6 -7 -7 -8 -8 -8 -8 -8 -8 -8 -8 -8 -7 -7 -7 -7 -7 -7 -6 -6 -6 -7 -7 -7 -7 -7 -7 -6 -5
-4 -5 -4 -4 -4 -4 -4 -5 -4 -6 -6 -5 -5 -6 -6 -7 -8 -8 -8 -8 -8 -8 -8 -8 -9 -8 -8 -8 -8 -8 -7 -7 -7 -7 -7 -6 -6 -7 -7 -7 -7 -8 -8 -7
-3 -5 -5 -5 -4 -4 -5 -4 -5 -5 -3 -3 -3 -4 -5 -6 -7 -8 -8 -8 -8 -9 -9 -9 -9 -9 -9 -9 -8 -8 -8 -8 -7 -7 -7 -7 -6 -6 -7 -7 -7 -7 -8 -8
-3 -4 -5 -5 -6 -5 -4 -5 -5 -5 -6 -4 -4 -4 -6 -6 -7 -8 -9 -9 -9 -9 -9 -9 -10 -10 -10 -9 -9 -8 -8 -8 -8 -7 -7 -7 -6 -6 -7 -7 -7 -7 -8 -8
-4 -4 -4 -6 -5 -5 -5 -5 -5 -5 -7 -7 -7 -5 -6 -7 -8 -8 -8 -8 -9 -9 -9 -10 -10 -11 -10 -10 -9 -9 -8 -8 -8 -8 -8 -7 -7 -7 -7 -7 -7 -8 -8 -8
-4 -4 -6 -5 -6 -5 -6 -5 -5 -5 -6 -7 -6 -5 -6 -7 -8 -8 -8 -8 -9 -10 -10 -11 -11 -11 -10 -10 -9 -9 -9 -9 -8 -8 -8 -8 -7 -7 -7 -7 -7 -8 -8 -8
-4 -4 -4 -2 -4 -4 -5 -5 -5 -6 -7 -6 -6 -6 -6 -7 -7 -8 -8 -9 -10 -10 -11 -11 -11 -11 -10 -10 -10 -9 -9 -9 -9 -8 -8 -8 -8 -7 -7 -7 -8 -8 -8 -8
-4 -4 -4 -4 -4 -4 -5 -6 -5 -5 -6 -6 -6 -6 -7 -7 -7 -8 -9 -9 -10 -10 -10 -11 -11 -11 -11 -11 -10 -10 -10 -9 -9 -9 -9 -8 -8 -8 -8 -8 -9 -9 -9 -9
-4 -5 -5 -6 -4 -5 -6 -6 -6 -6 -5 -5 -6 -6 -7 -7 -7 -8 -9 -9 -10 -10 -10 -11 -11 -10 -11 -11 -10 -10 -10 -10 -9 -9 -9 -9 -8 -8 -9 -9 -9 -10 -10 -10
-5 -6 -6 -4 -6 -5 -5 -3 -5 -4 -4 -5 -6 -6 -7 -7 -8 -8 -9 -9 -10 -10 -10 -10 -10 -10 -10 -10 -10 -10 -10 -10 -10 -10 -10 -9 -9 -9 -10 -10 -10 -11 -10 -10
-4 -6 -6 -4 -6 -4 -3 -3 -4 -5 -5 -4 -5 -6 -7 -8 -8 -8 -9 -9 -9 -9 -10 -10 -10 -10 -10 -10 -10 -10 -10 -10 -10 -10 -10 -10 -10 -10 -10 -11 -11 -11 -11 -11
-6 -6 -6 -5 -4 -3 -4 -3 -3 -4 -5 -4 -5 -7 -7 -8 -7 -7 -8 -8 -8 -9 -9 -9 -9 -9 -10 -10 -10 -10 -10 -10 -11 -10 -10 -10 -11 -11 -11 -12 -12 -12 -12 -12
-5 -6 -6 -7 -5 -2 -3 -2 -3 -4 -5 -4 -5 -6 -7 -8 -7 -7 -8 -8 -8 -9 -8 -9 -9 -9 -10 -10 -10 -11 -11 -11 -11 -11 -11 -11 -11 -12 -12 -12 -12 -13 -13 -13
-7 -7 -7 -7 -6 -4 -3 -2 -3 -5 -3 -4 -5 -6 -7 -7 -7 -7 -8 -8 -8 -8 -8 -9 -9 -9 -10 -10 -11 -11 -11 -11 -11 -11 -12 -12 -12 -12 -12 -13 -13 -13 -13 -13
-5 -6 -6 -6 -7 -4 -1 -2 -3 -3 -3 -4 -5 -5 -6 -6 -6 -7 -8 -8 -8 -8 -8 -9 -9 -9 -10 -10 -11 -11 -11 -11 -12 -12 -12 -12 -13 -12 -12 -12 -12 -13 -13 -13
-4 -2 -3 -2 -1 -1 -2 -2 -3 -3 -4 -5 -5 -5 -6 -6 -7 -7 -7 -7 -8 -8 -8 -8 -9 -9 -10 -10 -11 -11 -11 -11 -12 -12 -12 -13 -13 -13 -13 -12 -12 -12 -12 -13
-2 -2 -2 -1 -1 -1 -2 -3 -3 -4 -5 -5 -6 -6 -6 -6 -7 -7 -7 -7 -7 -7 -8 -8 -9 -9 -10 -10 -11 -11 -11 -11 -12 -12 -12 -12 -13 -13 -13 -13 -13 -12 -12 -12
-3 -1 -1 -0 -1 -1 -2 -2 -3 -4 -5 -5 -6 -6 -6 -6 -7 -7 -7 -7 -7 -7 -8 -8 -8 -9 -10 -10 -11 -11 -11 -12 -12 -12 -12 -12 -13 -13 -13 -13 -13 -13 -13 -13
0 0 -0 -0 -1 -1 -1 -2 -3 -4 -5 -5 -6 -6 -6 -7 -7 -7 -7 -7 -7 -7 -8 -8 -8 -9 -10 -10 -11 -11 -11 -12 -12 -12 -12 -12 -12 -13 -13 -13 -13 -14 -13 -13
Height
3157 3158 3158 3159 3159 3160 3162 3162 3162 3162 3161 3163 3161 3159 3159 3158 3157 3155 3153 3150 3147 3142 3138 3135 3132 3126 3122 3116 3110 3105 3099 3092 3087 3082 3077 3074 3069 3066 3064 3064 3065 3070 3069 3071
3159 3157 3158 3158 3160 3162 3163 3162 3162 3162 3160 3163 3162 3160 3159 3157 3156 3155 3153 3150 3147 3143 3139 3135 3131 3126 3120 3114 3109 3103 3096 3090 3085 3078 3073 3068 3065 3060 3055 3053 3054 3056 3061 3062
3157 3162 3159 3161 3160 3163 3162 3161 3162 3162 3161 3162 3163 3162 3160 3158 3159 3156 3152 3149 3145 3141 3138 3133 3128 3123 3117 3112 3107 3101 3094 3089 3082 3076 3069 3064 3060 3057 3052 3045 3043 3044 3048 3052
3156 3161 3161 3162 3162 3160 3162 3160 3160 3159 3162 3162 3161 3160 3160 3160 3159 3156 3152 3148 3144 3140 3137 3132 3125 3120 3114 3109 3103 3097 3090 3083 3077 3071 3064 3059 3051 3045 3043 3039 3036 3033 3034 3039
3161 3163 3161 3163 3160 3157 3161 3160 3159 3161 3163 3164 3163 3162 3160 3159 3159 3156 3152 3148 3143 3139 3134 3129 3123 3117 3112 3106 3100 3094 3088 3081 3073 3067 3060 3053 3049 3043 3036 3033 3031 3027 3023 3025
3160 3163 3162 3162 3160 3158 3159 3161 3162 3164 3164 3162 3163 3163 3160 3159 3157 3154 3150 3146 3142 3138 3133 3128 3122 3115 3111 3104 3097 3091 3085 3077 3071 3063 3056 3050 3044 3038 3032 3026 3023 3020 3015 3014
3164 3164 3163 3162 3163 3161 3161 3163 3163 3163 3162 3163 3162 3161 3159 3157 3155 3152 3148 3145 3141 3136 3130 3124 3118 3112 3106 3100 3094 3088 3082 3075 3068 3062 3055 3047 3038 3034 3028 3021 3016 3011 3008 3005
3165 3168 3165 3164 3163 3163 3161 3162 3161 3159 3160 3161 3161 3160 3159 3156 3153 3150 3147 3143 3139 3134 3129 3123 3116 3109 3103 3098 3092 3085 3079 3073 3065 3058 3051 3045 3037 3029 3024 3018 3012 3007 3001 2997
3161 3166 3165 3164 3163 3164 3163 3162 3161 3161 3162 3162 3159 3158 3157 3154 3152 3149 3146 3143 3138 3132 3126 3119 3113 3107 3101 3096 3089 3082 3076 3070 3062 3055 3048 3042 3035 3028 3021 3016 3010 3005 2997 2991
3159 3163 3165 3165 3164 3164 3164 3162 3163 3162 3161 3157 3156 3155 3156 3153 3150 3148 3144 3140 3135 3129 3123 3117 3111 3105 3099 3092 3086 3080 3074 3065 3058 3051 3044 3037 3031 3025 3018 3012 3006 3002 2995 2989
3158 3160 3166 3165 3164 3164 3162 3160 3161 3162 3163 3161 3158 3154 3153 3151 3147 3144 3141 3136 3131 3126 3120 3114 3109 3103 3097 3090 3083 3077 3070 3063 3056 3049 3041 3034 3028 3021 3015 3008 3002 2996 2991 2986
3157 3161 3163 3163 3163 3162 3160 3160 3159 3160 3162 3160 3161 3155 3151 3148 3146 3142 3138 3134 3129 3124 3118 3113 3107 3101 3095 3088 3081 3074 3067 3060 3052 3045 3037 3031 3024 3018 3011 3004 2998 2992 2987 2982
3157 3160 3162 3165 3165 3160 3159 3158 3157 3157 3157 3157 3157 3152 3149 3146 3143 3139 3135 3132 3126 3122 3116 3111 3105 3099 3092 3085 3077 3071 3064 3057 3049 3042 3034 3028 3020 3015 3008 3001 2995 2989 2983 2978
3155 3156 3156 3158 3156 3155 3155 3155 3155 3155 3154 3152 3151 3148 3148 3144 3141 3138 3134 3130 3126 3120 3115 3110 3104 3097 3089 3081 3074 3067 3061 3054 3046 3039 3032 3024 3017 3011 3005 2998 2991 2985 2980 2975
3154 3155 3155 3154 3154 3153 3153 3153 3152 3151 3150 3149 3147 3145 3143 3140 3138 3135 3131 3128 3124 3119 3114 3108 3101 3093 3085 3078 3071 3064 3057 3050 3043 3036 3028 3020 3014 3008 3002 2995 2987 2981 2976 2972
3152 3154 3153 3153 3152 3152 3151 3149 3148 3147 3145 3144 3143 3141 3139 3137 3135 3132 3131 3127 3122 3117 3111 3104 3097 3089 3082 3074 3068 3061 3054 3047 3039 3032 3025 3018 3011 3005 2999 2993 2985 2978 2973 2969
3149 3151 3152 3153 3151 3150 3148 3142 3144 3142 3141 3140 3139 3138 3135 3134 3132 3130 3127 3123 3119 3113 3107 3100 3093 3086 3079 3071 3064 3058 3051 3044 3037 3030 3023 3017 3009 3002 2995 2990 2983 2977 2971 2966
3147 3149 3151 3152 3151 3149 3140 3139 3139 3138 3136 3135 3134 3133 3132 3131 3128 3126 3123 3119 3115 3110 3103 3097 3089 3083 3076 3070 3063 3056 3049 3042 3035 3028 3022 3015 3008 3000 2993 2987 2982 2976 2969 2964
3145 3148 3149 3149 3147 3142 3137 3135 3135 3134 3134 3131 3130 3130 3129 3127 3125 3125 3120 3115 3111 3105 3100 3093 3086 3080 3074 3068 3062 3054 3047 3040 3033 3026 3020 3013 3006 3000 2992 2985 2979 2974 2968 2962
3141 3143 3147 3146 3145 3137 3132 3131 3132 3132 3130 3127 3127 3126 3126 3124 3125 3124 3116 3112 3107 3102 3097 3090 3084 3078 3072 3066 3059 3053 3046 3039 3031 3024 3018 3012 3006 3000 2993 2985 2979 2973 2968 2962
3137 3140 3140 3142 3141 3132 3128 3128 3129 3132 3131 3124 3123 3123 3122 3121 3120 3116 3112 3109 3104 3099 3094 3088 3082 3076 3070 3063 3057 3051 3044 3037 3030 3023 3017 3011 3005 2999 2994 2987 2980 2975 2970 2964
3130 3133 3133 3137 3136 3128 3124 3125 3127 3125 3122 3121 3120 3119 3118 3116 3114 3112 3109 3106 3101 3096 3091 3085 3080 3074 3068 3062 3056 3050 3044 3037 3030 3023 3016 3010 3005 2999 2993 2988 2982 2976 2971 2966
3126 3125 3125 3126 3123 3122 3122 3121 3121 3120 3119 3118 3117 3116 3114 3113 3111 3109 3106 3103 3098 3093 3088 3083 3078 3072 3066 3060 3054 3048 3042 3036 3030 3024 3017 3011 3005 2999 2993 2988 2983 2978 2972 2966
3118 3120 3119 3120 3118 3118 3118 3118 3117 3117 3116 3115 3114 3112 3111 3110 3108 3106 3103 3099 3095 3091 3086 3081 3076 3070 3065 3058 3052 3046 3041 3035 3029 3024 3017 3011 3005 2999 2993 2987 2982 2977 2972 2967
3115 3114 3114 3114 3114 3114 3113 3113 3113 3112 3112 3112 3111 3109 3108 3107 3105 3102 3099 3096 3093 3088 3084 3079 3074 3069 3063 3057 3051 3044 3039 3033 3028 3023 3017 3011 3005 2999 2993 2987 2981 2975 2970 2965
3107 3109 3110 3110 3109 3109 3109 3108 3107 3107 3108 3108 3107 3106 3105 3103 3101 3099 3096 3093 3089 3086 3082 3077 3072 3067 3061 3055 3050 3043 3037 3031 3026 3021 3016 3011 3005 2999 2994 2989 2984 2977 2971 2967
Wind_Speed
8 9 13 12 11 8 6 7 4 4 4 7 8 8 7 9 10 10 12 15 16 17 19 20 23 25 26 29 32 34 35 37 37 35 32 28 20 31 39 46 50 49 49 51
9 15 11 12 10 8 8 6 5 5 3 5 5 5 6 8 11 14 16 16 17 16 18 21 24 26 29 31 34 36 38 39 40 41 39 38 33 24 26 35 42 48 50 50
11 11 12 8 9 6 5 6 2 2 4 6 4 3 4 6 9 13 16 18 20 21 21 22 25 29 31 33 35 37 39 40 40 40 40 39 37 32 24 21 32 40 48 53
14 13 10 8 7 7 2 5 4 8 5 3 2 1 2 3 7 10 15 18 20 21 22 25 28 31 33 35 39 40 41 40 39 37 38 36 39 40 36 29 22 27 40 48
13 10 10 7 10 8 1 7 7 9 5 6 5 3 2 3 6 11 16 19 21 23 27 29 31 33 35 37 37 36 35 37 37 37 36 36 34 34 37 35 31 21 26 40
18 13 13 15 14 10 9 10 11 7 3 1 4 3 1 4 10 13 18 20 24 26 26 27 29 32 34 35 35 34 34 35 37 37 37 36 33 31 34 35 37 31 19 28
13 15 16 12 8 15 7 4 2 1 1 3 3 3 5 8 11 16 19 21 23 25 28 30 32 34 33 33 34 32 33 35 36 35 34 34 35 31 31 34 37 38 30 18
5 4 9 10 13 11 13 7 2 2 2 3 2 4 4 9 12 16 19 21 24 27 29 29 30 31 31 31 30 30 32 34 35 35 34 32 31 32 31 31 32 35 38 27
9 7 11 12 13 7 5 6 5 5 1 2 1 4 3 9 10 15 17 21 26 29 30 29 28 29 28 27 27 31 33 32 34 35 34 31 30 30 30 29 28 30 34 35
13 10 7 7 9 11 9 7 3 3 2 2 3 5 2 12 15 15 19 24 27 28 28 27 26 27 29 29 30 30 32 34 34 35 35 32 31 30 30 29 26 27 28 32
11 6 8 3 3 6 8 8 5 5 2 2 4 1 7 18 20 19 20 25 27 29 30 28 26 27 30 31 31 31 32 33 34 34 34 31 30 31 30 29 27 26 26 27
9 9 8 7 6 4 4 3 4 2 2 3 3 6 10 20 20 19 22 25 25 28 28 27 27 28 31 32 32 31 32 33 34 35 34 32 30 31 32 31 28 26 25 24
13 9 7 3 5 7 4 1 1 1 1 5 3 4 18 19 19 18 22 22 25 27 28 26 26 28 32 32 32 31 32 33 34 34 33 32 30 31 31 30 28 25 25 23
11 14 8 3 4 6 6 4 3 4 3 5 12 12 14 18 16 17 21 19 20 22 23 24 27 28 33 33 33 31 30 32 34 33 33 32 30 30 30 30 28 24 22 21
10 8 9 7 6 7 6 7 7 8 9 8 10 17 16 16 14 17 21 19 20 21 23 25 28 30 34 33 33 30 31 33 34 33 33 31 29 30 28 28 27 24 22 21
13 7 6 5 6 6 9 10 11 9 10 12 12 14 14 12 14 15 16 18 19 21 24 27 32 34 34 34 32 30 32 33 34 34 32 31 29 28 29 26 25 23 21 19
12 8 5 4 6 8 11 14 13 10 10 9 10 10 12 12 12 13 16 17 19 22 27 33 34 34 33 31 31 32 33 34 33 33 31 30 30 29 29 26 25 22 20 18
10 9 6 4 3 4 7 7 8 9 9 9 7 8 10 10 12 13 13 19 22 27 30 32 33 32 31 30 30 32 33 34 33 32 30 31 30 31 31 29 24 22 20 17
12 9 4 4 9 9 12 14 9 7 8 8 6 7 7 8 14 10 21 23 24 26 29 31 32 32 31 30 31 31 31 32 33 32 31 32 32 32 32 31 28 24 21 20
17 14 9 5 5 4 4 9 6 6 9 8 7 6 5 8 7 11 20 20 23 25 27 28 29 30 30 31 31 30 29 30 32 32 32 32 32 32 32 33 31 26 23 21
18 14 18 12 8 9 13 12 6 4 4 8 7 6 7 7 9 15 17 19 21 23 25 26 28 29 31 31 30 29 29 29 30 32 32 32 31 31 31 30 30 27 22 19
19 14 12 14 9 9 10 11 11 9 10 8 8 8 10 12 13 15 17 18 21 23 24 25 26 28 29 30 30 29 29 29 29 30 30 30 30 30 29 28 27 26 24 21
14 16 8 13 6 8 9 11 9 9 9 9 9 11 11 12 12 14 16 18 20 22 24 24 26 28 30 30 30 29 29 28 28 28 28 28 28 29 28 28 26 25 25 25
21 17 18 14 10 11 12 14 12 10 8 10 11 12 12 13 12 13 16 18 20 22 23 24 25 27 29 30 30 30 29 29 28 27 27 27 27 27 27 28 28 27 26 26
19 15 15 18 15 16 15 13 13 13 12 12 13 13 13 13 11 13 15 17 19 21 23 24 25 26 28 29 30 30 30 30 29 27 26 26 26 26 26 28 29 29 30 30
21 17 18 14 13 15 14 12 12 14 12 13 13 14 14 13 12 13 15 17 19 21 22 24 25 26 27 28 29 29 30 30 30 28 26 26 26 25 24 25 25 28 28 28
Wind_Direction
43 72 63 55 68 85 86 88 92 98 41 59 81 81 55 35 31 22 17 15 11 9 5 1 358 358 357 356 356 356 355 356 354 354 359 5 323 269 266 263 255 247 247 249
80 67 70 65 69 83 89 79 86 111 61 101 100 89 67 28 15 14 11 9 9 3 357 351 349 349 350 350 350 350 351 350 349 347 347 348 353 342 291 271 259 252 245 243
98 83 80 78 66 82 85 37 322 176 130 117 126 82 42 8 14 8 4 4 0 356 351 348 347 347 348 347 348 347 345 342 340 339 338 338 338 343 342 299 272 256 245 241
73 68 75 82 50 72 50 22 67 146 148 51 196 62 351 358 1 4 359 3 0 356 351 346 345 344 343 343 344 343 342 341 342 338 333 333 333 334 341 348 324 271 253 241
105 88 82 77 57 75 55 90 101 134 128 99 32 271 312 13 339 355 355 356 354 348 345 342 339 338 340 340 343 345 346 344 345 345 341 332 329 330 332 339 343 326 267 247
95 81 82 75 67 67 113 100 107 108 124 76 340 344 283 329 341 345 347 347 343 339 337 335 332 332 335 339 344 346 349 348 346 345 342 336 329 328 328 331 337 343 315 255
91 76 77 77 64 56 90 149 147 173 70 5 316 284 302 320 335 340 342 343 340 338 337 337 335 335 340 342 343 349 350 348 347 345 343 339 333 328 327 329 333 340 340 300
127 111 85 78 86 85 67 72 139 91 350 31 331 342 319 345 341 343 344 342 342 339 338 335 333 335 340 341 343 346 348 346 346 345 344 343 337 330 330 328 331 337 341 337
133 133 102 82 74 82 43 64 91 115 67 248 272 308 299 359 342 333 334 334 335 337 339 339 338 339 341 341 344 345 344 345 345 345 345 344 341 335 331 328 327 331 341 343
149 135 143 113 83 71 86 67 67 53 348 332 293 296 306 339 344 338 332 335 338 342 343 343 345 346 346 345 345 344 345 344 345 346 344 344 343 340 333 329 326 324 335 344
154 148 167 142 116 92 70 68 89 106 94 333 311 297 316 340 341 334 332 336 341 345 346 348 350 349 347 343 343 344 345 344 343 343 343 342 344 343 340 332 325 324 328 343
157 151 135 171 168 137 108 92 73 170 208 220 243 279 326 334 333 327 330 335 339 345 352 351 349 347 347 344 342 342 342 343 343 342 342 341 343 342 342 338 330 325 323 334
164 169 136 185 240 227 221 220 281 214 216 217 257 312 331 326 328 328 330 334 339 344 346 346 344 342 346 344 342 341 342 342 342 341 340 340 342 340 339 339 335 326 322 327
182 185 194 209 180 178 198 225 256 245 220 247 264 296 329 319 320 333 337 338 336 338 339 339 339 339 344 344 342 340 341 343 342 341 339 339 341 338 339 337 335 331 322 321
180 193 183 198 202 207 216 234 259 260 262 253 278 302 321 320 318 334 333 334 335 338 338 337 339 340 343 341 342 342 342 343 342 342 342 340 342 338 339 338 337 336 329 324
184 184 186 230 220 226 243 238 241 258 267 270 281 304 311 321 319 325 327 325 331 336 336 339 342 344 344 343 344 345 344 345 344 346 347 344 344 341 341 342 339 340 335 324
183 179 184 244 218 271 267 222 222 250 261 269 277 307 308 315 315 314 320 326 331 334 338 341 344 347 349 348 347 348 345 346 347 348 349 352 351 348 345 348 344 343 340 331
185 180 198 236 231 243 230 230 229 241 254 265 286 304 301 307 314 317 321 335 336 338 342 343 348 352 351 350 350 348 346 347 349 349 352 356 359 357 353 352 350 348 345 340
194 195 218 219 231 275 248 233 239 243 248 244 283 283 292 301 337 333 316 335 337 342 343 348 351 350 350 350 349 348 349 349 349 349 354 358 2 4 1 359 359 356 352 349
208 206 217 224 254 249 221 225 239 253 261 232 285 278 285 306 326 308 327 334 338 344 347 351 351 349 349 349 350 351 351 351 350 352 355 357 1 4 6 3 4 4 358 354
198 215 224 231 253 267 236 239 240 217 249 281 290 279 280 299 299 319 330 333 341 344 348 351 351 350 349 351 353 353 353 354 354 354 354 355 358 359 5 4 4 9 7 3
194 193 208 206 231 258 217 220 225 259 280 283 291 292 301 306 315 324 328 334 341 346 348 349 350 351 350 352 353 354 355 356 357 356 354 353 356 357 1 5 7 9 14 16
209 208 216 212 233 254 278 267 268 273 269 275 284 299 309 310 315 323 328 335 341 346 347 347 349 350 352 352 353 354 355 356 358 358 355 353 354 357 356 2 7 9 10 13
222 225 230 244 254 263 263 264 267 274 263 269 282 294 305 306 311 319 328 335 342 346 346 347 349 350 351 351 351 353 356 357 358 359 357 355 355 356 358 358 3 6 9 10
233 229 243 255 264 270 274 270 261 263 262 269 273 284 292 299 307 318 327 334 341 343 346 349 349 349 350 351 350 352 354 356 357 357 358 357 356 356 358 359 0 3 4 6
235 242 249 272 264 271 276 270 253 255 259 257 266 276 283 294 304 316 326 334 339 342 346 350 350 350 350 350 351 352 353 353 355 356 356 358 358 357 357 0 3 1 2 3